Tracking 30995 objects as of 5-Jul-2025
HD Live streaming from Space Station
objects crossing your sky now

CSO 2

Track CSO 2 now!
10-day predictions


NORAD ID: 47305
Int'l Code: 2020-104A
Perigee: 492.1 km
Apogee: 492.4 km
Inclination: 97.4 °
Period: 94.3 minutes
Semi major axis: 6863 km
RCS: Unknown
Launch date: December 29, 2020
Source: France (FR)
Launch site: FRENCH GUIANA (FRGUI)
Your satellite tracking list
Your tracking list is empty




NASA's NSSDC Master Catalog

Two Line Element Set (TLE):
1 47305U 20104A   25127.06603172 0.00000000  00000-0  00000-0 0    01
2 47305  97.3578  68.5439 0000232 353.2911   6.7087 15.26892676    06
Source of the keplerian elements: McCants